Regional Weather Roundup
Issued by NWS

Home | Current Version | Previous Version | Graphics & Text | Print | Product List | Glossary On
Versions: 1 2 3 4 5 6 7 8 9 10 11 12 13 14 15 16 17 18 19 20 21 22 23 24 25 26 27 28 29 30 31 32 33 34 35 36 37 38 39 40 41 42 43 44 45 46 47 48 49 50
351
ASUS43 KMPX 240510
RWRMN
WEATHER ROUNDUP FOR MINNESOTA
NATIONAL WEATHER SERVICE TWIN CITIES/CHANHASSEN MN
1200 AM CDT MON APR 24 2017


NOTE: "FAIR" INDICATES FEW OR NO CLOUDS BELOW 12,000 FEET WITH NO
SIGNIFICANT WEATHER AND/OR OBSTRUCTIONS TO VISIBILITY. N/A MEANS
CURRENT SKY AND/OR WEATHER CONDITIONS ARE NOT AVAILABLE.

MNZ060>063-068>070-240600-
   Twin Cities Metro

CITY           SKY/WX    TMP DP  RH WIND       PRES   REMARKS
TWIN CITIES    CLOUDY    52  39  61 NE8       29.88F
ST PAUL        PTCLDY    50  41  71 E3        29.89F
CRYSTAL        CLOUDY    46  36  68 NE6       29.88F
BLAINE         PTCLDY    46  39  76 E7        29.89F
LAKEVILLE      PTCLDY    55  34  44 S7        29.86F
EDEN PRAIRIE   PTCLDY    52  40  63 NE12      29.86F
SOUTH ST PAUL  PTCLDY    52  40  64 N5        29.88F
LAKE ELMO      FAIR      46  41  81 NE8       29.90F
$$
MNZ001>005-007-008-013>017-022>024-027-028-240600-
   Northwest Minnesota

CITY           SKY/WX    TMP DP  RH WIND       PRES   REMARKS
BEMIDJI        CLOUDY    32  30  92 E16G22    29.94F WCI  22
HALLOCK        CLOUDY    36  16  44 E12       29.98F
ROSEAU         CLOUDY    36  21  55 E9        30.01F
WARROAD        CLOUDY    36  19  51 E17G23    30.02F
THIEF RVR FALL FLURRIES  31  29  92 E17G25    29.93F WCI  19
CROOKSTON      MIX PCPN  34  30  86 E14       29.92F WCI  24
FOSSTON        CLOUDY    32  27  80 E12G24    29.91F WCI  23
DETROIT LAKES  MOCLDY    36  32  87 E13G22    29.86F
MOORHEAD       PTCLDY    37  32  81 E10       29.84F
PARK RAPIDS    CLOUDY    35  27  72 E15       29.91F WCI  25
MAHNOMEN       CLOUDY    34  31  86 E17G24    29.86F WCI  24
$$
MNZ006-009>011-018-025>026-240600-
   North Central Minnesota

CITY           SKY/WX    TMP DP  RH WIND       PRES   REMARKS
BAUDETTE       CLOUDY    34  15  46 E7        30.02F WCI  28
FLAG ISLAND    CLOUDY    34  12  40 NE9       30.03F WCI  26
INTL FALLS     CLOUDY    32  25  75 SE8       30.04F WCI  25
WASKISH        MIX PCPN  30  30 100 E12       29.99F WCI  21
BIG FORK       MIX PCPN  34  30  86 E10G18    30.01F WCI  26
LONGVILLE      CLOUDY    34  28  80 E6        29.97S WCI  29
GRAND RAPIDS   CLOUDY    32  26  78 E9G16     30.02F WCI  24
CRANE LAKE     CLOUDY    34  25  69 CALM      30.09F
ORR            FLURRIES  30  27  86 MISG      30.03F
COOK           LGT SNOW  30  30 100 E12       30.05F WCI  21
WALKER         CLOUDY    34  29  81 E13G24    29.95F WCI  25
$$
MNZ012-019>021-037-240600-
   Northeast Minnesota

CITY           SKY/WX    TMP DP  RH WIND       PRES   REMARKS
DULUTH         CLOUDY    32  27  81 E17G29    30.01F WCI  21
ELY            LGT SNOW  30  28  93 E5        30.08F WCI  25
HIBBING        CLOUDY    31  28  89 E10       30.04F WCI  22
EVELETH        CLOUDY    32  27  81 E6        30.05F WCI  27
DULUTH HARBOR  CLOUDY    37  32  81 NE26      30.05F
TWO HARBORS    PTCLDY    36  28  75 NE12G20   30.05F
SILVER BAY     MIX PCPN  32  28  86 NE8G18    30.08S WCI  25
GRAND MARAIS     N/A     34  24  67 E13       30.16S WCI  25
G MARAIS ARPRT CLOUDY    27  18  69 E9        30.11S WCI  17
$$
MNZ029>031-032-039>041-046>048-054>057-064-240600-
   West Central Minnesota

CITY           SKY/WX    TMP DP  RH WIND       PRES   REMARKS
FERGUS FALLS   CLOUDY    39  32  75 E18G28    29.79F
WHEATON        CLOUDY    43  36  75 E20       29.79F
MORRIS         PTCLDY    43  36  75 E30G36    29.77F
ALEXANDRIA     CLOUDY    38  33  82 E20G30    29.85F
ELBOW LAKE     FAIR      40  36  83 SE26G35   29.79F
WADENA         CLOUDY    34  28  80 E17G24    29.88F WCI  23
GLENWOOD       CLOUDY    37  34  87 E21       29.84F
APPLETON       CLOUDY    46  39  76 E20       29.76F
BENSON         CLOUDY    45  34  65 SE15G23   29.81F
ORTONVILLE     CLOUDY    46  37  71 E18       29.74F
MADISON        CLOUDY    55  37  50 E10       29.75S
WILLMAR        FAIR      46  39  76 E16G22    29.83F
$$
MNZ033>034-036-042>043-049>051-058-059-240600-
   Central Minnesota

CITY           SKY/WX    TMP DP  RH WIND       PRES   REMARKS
ST CLOUD       CLOUDY    38  33  82 E12G18    29.89F
SAUK CENTRE    FAIR      37  32  84 E16G24    29.87F
PAYNESVILLE    PTCLDY    40  35  81 E10       29.86F
AITKIN         PTCLDY    34  21  60 NE9G17    29.95F WCI  26
PINE RIVER     PTCLDY    34  27  75 E12       29.98F WCI  25
BRAINERD       CLOUDY    34  25  69 E8        29.94F WCI  27
STAPLES        PTCLDY    34  27  75 E10G16    29.91F WCI  26
LONG PRAIRIE   FAIR      34  32  93 NE12      29.88F WCI  25
LITTLE FALLS   PTCLDY    34  30  86 NE7       29.91F WCI  28
LITCHFIELD     PTCLDY    45  39  81 E12       29.86
BUFFALO        CLOUDY    42  34  75 NE8G16    29.89F
MAPLE LAKE     PTCLDY    42  36  81 NE9       29.89F
HUTCHINSON     CLOUDY    47  40  77 NE12      29.86S
$$
MNZ037-044-045-052-053-240600-
   East Central Minnesota

CITY           SKY/WX    TMP DP  RH WIND       PRES   REMARKS
PRINCETON      CLOUDY    37  32  81 NE9G16    29.91F
MORA           CLOUDY    34  28  80 E7        29.96F WCI  28
CAMBRIDGE      CLOUDY    39  30  70 NE6       29.90F
RUSH CITY      MOCLDY    37  31  80 NE8       29.94F
MOOSE LAKE     CLOUDY    34  23  64 NE10G18   29.97F WCI  26
HINCKLEY       FAIR      36  30  80 NE10      29.96F
CLOQUET        CLOUDY    34  27  75 E12G21    30.00F WCI  25
MCGREGOR       CLOUDY    32  27  80 E7        29.99F WCI  26
$$
MNZ071>073-080-081-089-090-097-098-240600-
   Southwest Minnesota

CITY           SKY/WX    TMP DP  RH WIND       PRES   REMARKS
MONTEVIDEO     CLOUDY    52  37  58 SE9       29.77S
GRANITE FALLS  MOCLDY    58  35  42 SE15      29.78F
CANBY          CLOUDY    59  31  34 S12       29.74F
MARSHALL       CLOUDY    58  31  35 S16       29.76F
REDWOOD FALLS  CLOUDY    55  32  41 S12       29.80F
OLIVIA         MOCLDY    55  32  41 S10       29.79F
PIPESTONE      CLOUDY    54  27  35 S14       29.79F
WINDOM         CLOUDY    57  30  35 S13       29.83F
WORTHINGTON    CLOUDY    55  31  39 S14       29.84F
JACKSON        CLOUDY    54  32  43 S12       29.86F
TRACY          CLOUDY    58  33  38 S12G20    29.79F
SLAYTON        CLOUDY    56  31  39 S13       29.82S
$$
MNZ065>067-074>077-082>085-091>093-240600-
   South Central Minnesota

CITY           SKY/WX    TMP DP  RH WIND       PRES   REMARKS
MANKATO        PTCLDY    56  31  38 S9        29.86F
NEW ULM        PTCLDY    55  30  38 S12       29.83F
ST JAMES       CLOUDY    57  32  38 S15       29.85F
FAIRMONT       PTCLDY    52  34  50 S13       29.87F
GLENCOE        CLOUDY    52  44  74 NE5       29.84F
FARIBAULT      PTCLDY    55  34  44 S7        29.89S
OWATONNA       CLOUDY    57  30  35 S12       29.89F
WASECA         CLOUDY    55  32  41 S14       29.89F
ALBERT LEA     CLOUDY    52  30  43 SE6       29.91S
$$
MNZ078>079-086>088-094>096-240600-
   Southeast Minnesota

CITY           SKY/WX    TMP DP  RH WIND       PRES   REMARKS
ROCHESTER      CLOUDY    50  36  58 S6        29.93F
RED WING       PTCLDY    63  28  27 SW7G16    29.88F
STANTON        CLOUDY    55  35  45 S7        29.86F
DODGE CENTER   CLOUDY    52  36  54 S9        29.91F
WINONA         PTCLDY    55  39  54 CALM      29.93S
AUSTIN         CLEAR     52  36  54 S8        29.92F
PRESTON        CLEAR     53  32  44 S9        29.94F
$$
ABBREVIATIONS USED IN REMARKS
   TC - TEMPERATURES IN CELSIUS
  WCI - WIND CHILL INDEX
   HX - HEAT INDEX
  VSB - VISIBILITY
$$




USA.gov is the U.S. government's official web portal to all federal, state and local government web resources and services.